Location: Cannifist
(18.2333°N, 63.0167°W)
Time: 00:37:48
(UTC+00:00)

Cosmos 1570 Rocket - Pass Details

Date: 27 February 2020
Orbit: 762 x 789 km, 74.1° (Epoch: 28 March)

Event Time Altitude Azimuth Distance (km) Brightness Sun altitude
Rises 22:32:57 0° 182° (S) 3,210 7.3 -4.5°
Reaches altitude 10° 22:35:22 10° 177° (S) 2,287 6.5 -5.1°
Maximum altitude 22:40:23 52° 102° (ESE) 940 4.2 -6.3°
Drops below altitude 10° 22:45:27 10° 26° (NNE) 2,301 6.2 -7.4°
Sets 22:47:52 0° 22° (NNE) 3,232 7.0 -8.0°
